Tracking 33747 objects as of 11-Apr-2026
HD Live streaming from Space Station
objects crossing your sky now

COSMOS 256

Track COSMOS 256 now!
10-day predictions
COSMOS 256 is classified as:


NORAD ID: 3576
Int'l Code: 1968-106A
Perigee: 1,178.0 km
Apogee: 1,229.6 km
Inclination: 74.1 °
Period: 109.3 minutes
Semi major axis: 7574 km
RCS: 3.2431 m2 (large)
Launch date: November 30, 1968
Source: Commonwealth of Independent States (former USSR) (CIS)
Launch site: PLESETSK MISSILE AND SPACE COMPLEX (PKMTR)
Your satellite tracking list
Your tracking list is empty




NASA's NSSDC Master Catalog

Two Line Element Set (TLE):
1  3576U 68106A   26101.22109183 -.00000118  00000-0 -25596-3 0  9990
2  3576  74.0501 191.5773 0034007 208.9893 178.2785 13.16881698756889
Source of the keplerian elements: AFSPC